SCP
0 0 0 0 0 0 0 0 0 0 0 0 0 0 0 0 0 0 0 0 0 0 0 0 0 0 0 0 0 0 0 0 0 0 0 0 0 0 0 0 0 0 0 0
0 0 0 0 0 0 0 0 0 0 0 0 0 0 0 0 0 0 -0 0 0 0 0 0 0 0 0 0 0 0 0 0 0 0 0 0 0 0 0 0 0 0 0 0
0 0 0 0 0 0 0 0 0 0 0 0 0 0 0 0 0 -0 -0 -0 -0 -0 0 0 0 0 0 0 0 0 0 0 0 0 0 0 0 0 0 0 0 0 0 0
0 0 0 0 0 0 0 0 0 0 -0 0 0 0 0 0 0 0 0 0 0 0 0 0 0 0 0 0 0 0 0 0 0 0 0 0 0 0 0 0 0 0 0 0
0 0 0 0 0 0 0 0 0 0 0 0 0 0 0 0 0 0 0 0 0 0 0 0 0 0 0 0 0 0 0 0 0 0 0 0 0 0 0 0 0 0 0 0
0 0 0 0 0 0 0 0 0 0 0 0 0 0 0 0 0 0 0 0 0 0 0 0 0 0 0 0 0 0 0 0 0 0 0 0 0 0 0 0 0 0 0 0
0 0 0 0 0 0 0 0 0 0 0 0 0 0 0 0 0 0 0 0 0 0 0 0 0 0 0 0 0 0 0 0 0 0 0 0 0 0 0 0 0 0 0 0
0 0 0 0 0 0 0 0 0 0 0 0 0 0 0 0 0 0 0 0 0 0 0 0 0 0 0 0 0 0 0 0 0 0 0 0 0 0 0 0 0 0 0 0
0 0 -0 -0 -0 0 0 0 0 0 0 0 0 0 0 0 0 0 0 0 0 0 0 0 0 0 0 0 0 0 0 0 0 0 0 0 0 0 0 0 0 0 0 0
0 -0 0 0 0 0 0 0 0 0 0 0 0 0 0 0 0 0 0 0 0 0 0 0 0 0 0 0 0 0 0 0 0 0 0 0 0 0 0 0 0 0 0 0
0 0 -0 -0 -0 -0 -0 -0 -0 -0 -0 -0 0 0 0 0 0 0 0 0 0 0 0 0 0 0 0 0 0 0 0 0 0 0 0 0 0 0 0 0 0 0 0 0
0 0 0 0 0 0 -0 -0 0 0 0 -0 -0 -0 -0 -0 -0 -0 -0 -0 -0 -0 0 0 0 0 0 0 0 0 0 0 0 0 0 0 0 0 0 0 0 0 0 0
0 0 0 0 0 0 0 0 0 0 0 0 0 0 -0 -0 -0 -0 -0 -0 -0 -0 -0 0 0 0 0 0 0 0 0 0 0 0 0 0 0 0 0 0 0 0 0 0
0 0 0 0 0 0 0 0 0 0 0 0 0 0 0 0 -0 -0 -0 -0 0 -0 -0 -0 -0 0 0 0 0 0 0 0 0 0 0 0 0 0 0 0 0 0 0 0
0 0 0 0 0 0 0 0 0 0 0 0 0 0 0 0 0 0 0 0 0 0 0 0 0 0 0 0 0 0 0 0 0 0 0 0 0 0 0 0 0 0 0 0
0 0 0 -0 0 0 0 0 0 0 0 0 0 0 0 0 0 0 0 0 0 0 0 0 0 0 0 0 0 0 0 0 0 0 0 0 0 0 0 0 0 0 0 0
0 0 0 0 0 0 0 0 0 0 0 0 0 0 0 0 0 0 -0 -0 0 0 0 0 0 0 0 0 0 0 0 0 0 0 0 0 0 0 0 0 0 0 0 0
0 0 0 0 0 0 0 0 0 0 0 0 0 0 0 0 0 0 0 0 0 0 0 -0 0 0 0 0 0 0 0 0 0 0 0 0 0 0 0 0 0 0 0 0
-0 -0 -0 -0 -0 -0 -0 -0 -0 -0 0 0 0 0 0 0 0 0 0 0 0 0 -0 -0 -0 0 0 0 0 -0 0 0 0 0 0 0 0 0 0 0 0 0 0 0
-0 0 0 0 0 0 0 0 0 0 0 0 0 0 0 0 0 0 0 0 0 0 0 0 0 0 0 0 0 0 0 0 0 0 0 0 0 0 0 0 0 0 0 0
-0 0 0 0 0 0 0 0 0 0 0 0 0 0 0 0 0 0 0 0 0 0 0 0 0 0 0 0 0 0 0 0 0 0 0 0 0 0 0 0 0 0 0 0
-0 -0 0 0 -0 -0 -0 -0 -0 0 0 -0 -0 -0 0 0 0 0 0 0 0 0 0 0 0 0 0 0 0 0 0 0 0 0 0 0 0 0 0 0 0 0 0 0
0 0 0 0 0 0 0 0 0 0 0 0 0 0 0 0 0 0 0 0 0 0 0 0 0 0 0 0 0 0 0 0 0 0 0 0 0 0 0 0 0 0 0 0
0 0 0 0 0 -0 0 0 0 0 0 0 0 0 0 0 0 0 0 0 0 0 0 0 0 0 0 0 0 0 0 0 0 -0 0 0 0 0 0 0 0 0 0 0
0 0 0 0 -0 0 0 0 0 0 0 0 0 0 0 0 0 0 0 0 0 0 0 0 0 0 0 0 0 0 0 0 0 -0 -0 0 0 0 -0 -0 0 0 0 0
0 0 0 0 0 0 0 0 0 0 0 0 0 0 0 0 0 0 0 0 0 0 -0 0 0 0 0 0 0 0 0 0 0 -0 0 0 0 0 0 0 0 0 0 0
0 0 0 0 0 0 0 0 0 0 0 0 0 0 0 0 0 0 0 0 0 0 0 0 0 0 -0 -0 -0 -0 0 0 0 -0 0 0 0 0 0 0 0 0 0 0
Wind_Speed_500mb
42 19 7 11 10 20 27 47 16 49 31 13 16 0 2 6 26 22 21 20 22 26 28 34 42 47 55 62 61 62 64 65 60 60 65 69 70 71 66 64 58 53 50 47
26 39 46 33 24 23 44 49 38 57 41 18 15 20 12 27 36 38 39 40 44 50 55 59 55 55 61 68 73 77 72 68 61 60 66 70 71 71 67 66 61 58 54 49
40 31 24 22 43 43 13 16 29 31 43 12 22 13 24 38 41 45 53 57 50 41 41 48 55 59 66 69 76 85 89 82 71 67 67 70 72 71 72 69 63 61 55 51
14 10 39 15 23 42 49 51 29 33 35 21 15 12 29 48 47 47 52 54 56 57 53 42 45 54 58 60 64 71 85 91 84 74 71 71 74 74 74 70 67 62 56 51
7 11 6 12 9 7 11 7 20 15 22 22 37 7 15 56 52 48 49 49 51 52 53 46 40 39 49 58 64 66 72 83 90 83 79 75 78 78 76 71 68 64 57 52
8 9 12 7 9 14 8 8 17 20 22 29 32 6 7 57 53 52 52 57 60 57 53 47 46 45 45 47 50 67 74 74 83 91 84 79 80 78 74 72 67 61 57 54
26 19 3 25 20 16 8 6 10 13 12 20 10 5 28 46 53 54 55 59 59 61 60 60 56 53 46 44 41 41 52 65 73 84 79 77 77 74 71 68 66 62 59 56
10 8 5 34 10 10 9 10 5 6 9 13 13 21 32 43 50 57 64 67 63 61 60 60 59 57 51 45 40 36 38 49 60 68 73 76 74 71 70 70 68 65 62 59
7 5 3 20 27 22 14 5 4 12 20 24 25 25 33 44 51 54 56 61 62 65 61 55 55 56 56 55 49 37 30 29 41 52 65 70 71 71 72 73 71 68 65 61
7 7 7 13 13 9 8 6 10 15 23 26 30 32 33 34 43 49 55 62 65 65 62 60 54 52 52 54 51 40 29 23 28 43 56 64 69 71 74 75 73 68 64 59
5 10 14 13 9 1 3 9 17 18 20 24 29 33 30 34 39 47 55 59 62 58 60 62 61 52 51 52 51 47 29 25 19 31 45 58 65 70 73 70 65 61 55 49
5 9 8 10 4 6 7 11 19 30 37 29 28 29 32 36 40 48 55 60 58 59 61 58 58 53 51 48 50 49 40 28 27 24 29 44 58 67 71 70 63 60 56 51
3 12 14 16 16 15 18 25 30 34 37 49 43 39 45 49 51 53 56 58 62 64 61 61 59 54 52 50 46 47 42 41 30 33 32 33 47 61 70 71 68 64 60 54
10 19 4 5 8 26 38 37 40 42 41 41 47 51 55 60 62 61 61 61 64 63 60 61 61 55 57 53 51 40 40 43 44 34 32 40 42 53 63 74 73 65 60 57
8 18 22 32 31 29 34 37 43 46 48 51 51 56 58 65 69 70 69 69 68 65 59 59 62 53 52 56 50 51 44 35 45 51 37 37 46 56 57 66 73 65 61 60
23 27 22 21 37 39 44 48 53 58 59 61 63 65 68 70 76 79 78 75 72 72 68 67 62 57 54 57 54 53 51 44 40 48 50 45 46 59 62 65 66 61 65 65
34 30 44 52 52 59 62 64 66 71 74 75 76 76 76 80 84 85 85 84 79 77 74 73 68 59 56 58 59 56 55 60 50 44 46 47 52 61 70 68 66 66 69 71
36 43 46 53 62 67 71 70 72 73 76 78 81 83 86 85 89 92 91 89 89 87 83 78 62 61 60 55 57 58 57 59 58 50 46 42 48 57 66 67 68 66 74 68
44 52 55 59 61 66 72 74 73 75 76 77 80 84 85 88 88 89 86 89 93 95 94 79 66 64 65 57 54 60 62 62 61 59 52 49 52 52 59 60 64 65 76 69
58 59 60 65 63 65 73 72 74 75 73 73 74 78 83 82 80 82 79 89 91 92 90 82 69 68 67 62 53 55 60 62 61 56 55 47 49 51 58 51 55 61 76 68
64 66 68 69 71 67 67 68 70 74 73 71 74 78 80 79 75 74 79 88 85 72 71 69 70 70 67 61 56 58 60 61 61 60 56 52 44 46 43 48 50 61 69 65
63 65 65 63 63 67 67 69 72 76 75 72 71 72 75 78 74 74 72 80 78 65 61 60 60 59 58 54 57 60 62 63 68 70 61 63 57 53 42 30 51 59 60 59
60 58 55 56 61 66 68 66 65 62 65 65 66 66 67 68 66 71 80 65 64 59 56 58 54 50 47 48 53 58 63 63 64 67 62 63 61 65 62 56 39 54 57 58
55 54 56 58 57 59 64 61 59 60 62 62 61 59 60 64 65 60 64 63 58 55 55 56 55 51 48 53 56 58 61 65 65 65 65 63 58 64 65 63 65 43 55 59
49 51 52 52 54 59 59 58 59 60 61 62 61 58 57 57 62 62 58 59 59 58 61 59 57 55 57 60 62 64 63 65 66 64 64 65 60 59 65 62 60 63 57 58
46 47 48 50 53 53 55 56 58 61 62 64 64 61 58 56 57 59 58 58 58 57 58 57 55 54 56 59 60 60 61 62 65 65 65 65 62 58 59 60 58 53 60 62
44 47 53 55 50 51 52 54 58 60 59 60 65 61 58 55 53 52 52 53 53 54 55 55 53 50 51 54 56 56 56 58 60 61 61 62 62 59 57 56 54 52 48 54
Wind_Direction_500mb
230 211 202 194 172 184 206 234 203 250 241 237 269 256 3 323 321 339 344 321 309 305 288 264 251 244 236 231 229 230 233 234 238 246 246 243 241 238 238 239 242 243 242 243
236 233 241 234 218 219 208 227 247 266 275 272 311 306 333 321 352 5 9 355 331 319 311 302 287 268 257 251 247 240 237 238 241 248 247 243 239 235 236 237 238 238 239 241
238 236 234 238 222 221 189 211 212 238 251 285 274 331 23 15 20 13 350 343 340 335 321 308 297 294 290 280 275 259 246 243 244 248 247 243 238 234 235 236 236 235 237 238
246 162 228 223 213 219 223 236 243 259 283 356 14 8 58 28 19 7 354 346 341 335 328 319 299 278 273 273 280 274 257 249 247 248 246 241 236 234 235 235 234 233 236 236
254 235 322 306 53 81 170 101 26 350 355 345 338 269 76 20 20 12 2 356 348 344 338 328 324 304 281 266 263 265 263 255 253 252 247 239 235 233 233 232 229 230 233 234
240 249 231 51 346 320 209 142 25 23 17 2 0 83 354 353 3 4 7 5 3 355 351 340 332 322 304 286 270 261 257 257 258 252 245 240 237 233 232 229 227 230 232 234
225 235 205 336 309 314 201 78 49 45 23 16 32 330 311 348 353 354 354 356 359 0 359 356 347 340 332 314 293 273 260 256 256 249 242 240 236 232 230 225 225 227 230 232
334 317 209 342 30 49 117 139 101 3 347 331 325 331 333 337 339 342 344 346 348 352 355 356 354 347 346 339 320 296 282 269 255 244 236 235 231 227 224 221 223 225 229 231
31 11 45 67 115 118 118 144 330 330 329 331 327 329 326 325 327 330 331 332 334 340 341 349 353 354 348 344 337 314 297 298 273 245 237 233 226 222 218 219 222 226 229 232
36 140 154 126 110 92 43 15 325 323 320 323 320 324 322 322 322 325 326 326 326 329 329 335 343 349 348 341 340 331 307 296 282 256 236 227 224 221 219 220 223 227 231 234
247 85 106 158 174 137 7 322 315 312 315 320 317 314 316 318 322 322 323 322 324 325 326 327 329 335 341 338 335 333 329 301 288 267 242 232 228 225 224 227 231 234 239 241
229 34 347 77 207 271 308 310 311 316 316 318 317 310 308 312 315 318 317 317 319 325 325 325 325 328 329 332 330 324 335 326 289 266 261 249 239 235 231 232 235 237 239 241
47 336 313 299 277 298 317 314 309 308 307 309 310 302 306 310 313 312 312 317 318 321 325 327 325 327 323 319 319 321 323 314 308 277 256 256 254 246 242 239 238 239 241 242
354 349 287 322 251 297 305 304 303 304 306 304 302 303 306 308 308 310 312 312 313 315 321 323 323 328 320 315 307 314 304 298 293 293 268 260 262 257 251 250 245 242 246 247
334 331 302 295 298 300 302 300 301 303 305 303 301 300 303 303 302 302 303 305 308 310 315 317 318 326 316 309 304 298 299 300 289 282 274 268 268 264 255 251 249 247 250 250
311 311 296 289 301 302 303 305 303 303 303 302 299 300 299 296 294 294 296 300 304 305 307 309 311 320 316 311 305 295 294 295 287 282 277 259 258 264 256 254 253 251 256 250
321 324 315 310 312 308 306 306 304 303 304 302 301 298 294 293 290 289 291 293 296 294 295 297 306 310 309 308 306 303 293 289 291 285 272 268 261 269 263 253 256 251 243 251
308 304 302 300 301 302 302 301 300 300 298 299 299 298 295 294 291 289 289 291 290 285 285 290 300 301 300 303 304 301 294 287 280 279 274 268 262 263 267 260 252 260 256 250
308 304 303 301 302 299 297 298 297 298 298 297 295 294 293 292 292 292 293 288 283 281 280 287 294 292 291 295 296 294 291 286 281 272 276 271 268 262 265 260 254 250 256 248
310 309 307 303 301 298 298 297 299 299 299 300 298 295 294 294 295 293 291 285 280 280 283 287 287 283 284 287 289 286 284 282 282 276 273 270 266 263 263 262 259 253 254 245
314 314 311 310 308 307 304 305 305 303 305 303 300 298 297 297 295 294 291 287 284 289 287 285 282 281 283 284 283 280 278 276 275 270 263 260 256 255 268 271 265 256 252 245
313 310 309 308 306 303 303 304 302 303 304 302 301 300 300 298 299 296 291 288 296 296 290 281 276 275 276 277 275 274 273 272 273 273 272 266 259 255 252 257 267 261 252 246
313 312 312 309 306 305 305 305 308 306 303 302 301 300 299 300 300 299 298 302 303 301 295 288 285 281 276 272 271 272 273 274 273 274 272 271 263 258 255 248 249 262 256 250
321 320 316 315 313 310 310 315 314 311 309 310 309 310 308 306 304 301 304 305 302 300 294 290 288 285 282 277 273 270 271 273 273 273 271 269 266 263 259 254 247 244 258 251
325 322 322 323 321 320 319 321 320 319 318 316 315 314 312 309 301 309 307 304 302 299 295 292 289 283 277 274 273 274 272 271 271 270 269 267 264 261 259 253 253 244 240 249
332 331 331 331 328 328 327 324 314 316 315 312 315 317 317 315 312 310 309 307 305 302 298 295 290 285 281 278 275 273 272 270 268 265 264 263 261 260 258 252 249 246 237 238
343 345 342 339 341 336 332 330 322 321 323 319 315 321 321 321 319 315 312 309 307 306 305 302 297 291 285 282 279 276 272 269 267 266 262 259 256 254 249 247 244 238 236 238
Wind_Speed_850mb
42 19 7 11 10 20 27 47 16 49 31 13 16 0 2 6 26 22 21 20 22 26 28 34 42 47 55 62 61 62 64 65 60 60 65 69 70 71 66 64 58 53 50 47
26 39 46 33 24 23 44 49 38 57 41 18 15 20 12 27 36 38 39 40 44 50 55 59 55 55 61 68 73 77 72 68 61 60 66 70 71 71 67 66 61 58 54 49
40 31 24 22 43 43 13 16 29 31 43 12 22 13 24 38 41 45 53 57 50 41 41 48 55 59 66 69 76 85 89 82 71 67 67 70 72 71 72 69 63 61 55 51
14 10 39 15 23 42 49 51 29 33 35 21 15 12 29 48 47 47 52 54 56 57 53 42 45 54 58 60 64 71 85 91 84 74 71 71 74 74 74 70 67 62 56 51
7 11 6 12 9 7 11 7 20 15 22 22 37 7 15 56 52 48 49 49 51 52 53 46 40 39 49 58 64 66 72 83 90 83 79 75 78 78 76 71 68 64 57 52
8 9 12 7 9 14 8 8 17 20 22 29 32 6 7 57 53 52 52 57 60 57 53 47 46 45 45 47 50 67 74 74 83 91 84 79 80 78 74 72 67 61 57 54
26 19 3 25 20 16 8 6 10 13 12 20 10 5 28 46 53 54 55 59 59 61 60 60 56 53 46 44 41 41 52 65 73 84 79 77 77 74 71 68 66 62 59 56
10 8 5 34 10 10 9 10 5 6 9 13 13 21 32 43 50 57 64 67 63 61 60 60 59 57 51 45 40 36 38 49 60 68 73 76 74 71 70 70 68 65 62 59
7 5 3 20 27 22 14 5 4 12 20 24 25 25 33 44 51 54 56 61 62 65 61 55 55 56 56 55 49 37 30 29 41 52 65 70 71 71 72 73 71 68 65 61
7 7 7 13 13 9 8 6 10 15 23 26 30 32 33 34 43 49 55 62 65 65 62 60 54 52 52 54 51 40 29 23 28 43 56 64 69 71 74 75 73 68 64 59
5 10 14 13 9 1 3 9 17 18 20 24 29 33 30 34 39 47 55 59 62 58 60 62 61 52 51 52 51 47 29 25 19 31 45 58 65 70 73 70 65 61 55 49
5 9 8 10 4 6 7 11 19 30 37 29 28 29 32 36 40 48 55 60 58 59 61 58 58 53 51 48 50 49 40 28 27 24 29 44 58 67 71 70 63 60 56 51
3 12 14 16 16 15 18 25 30 34 37 49 43 39 45 49 51 53 56 58 62 64 61 61 59 54 52 50 46 47 42 41 30 33 32 33 47 61 70 71 68 64 60 54
10 19 4 5 8 26 38 37 40 42 41 41 47 51 55 60 62 61 61 61 64 63 60 61 61 55 57 53 51 40 40 43 44 34 32 40 42 53 63 74 73 65 60 57
8 18 22 32 31 29 34 37 43 46 48 51 51 56 58 65 69 70 69 69 68 65 59 59 62 53 52 56 50 51 44 35 45 51 37 37 46 56 57 66 73 65 61 60
23 27 22 21 37 39 44 48 53 58 59 61 63 65 68 70 76 79 78 75 72 72 68 67 62 57 54 57 54 53 51 44 40 48 50 45 46 59 62 65 66 61 65 65
34 30 44 52 52 59 62 64 66 71 74 75 76 76 76 80 84 85 85 84 79 77 74 73 68 59 56 58 59 56 55 60 50 44 46 47 52 61 70 68 66 66 69 71
36 43 46 53 62 67 71 70 72 73 76 78 81 83 86 85 89 92 91 89 89 87 83 78 62 61 60 55 57 58 57 59 58 50 46 42 48 57 66 67 68 66 74 68
44 52 55 59 61 66 72 74 73 75 76 77 80 84 85 88 88 89 86 89 93 95 94 79 66 64 65 57 54 60 62 62 61 59 52 49 52 52 59 60 64 65 76 69
58 59 60 65 63 65 73 72 74 75 73 73 74 78 83 82 80 82 79 89 91 92 90 82 69 68 67 62 53 55 60 62 61 56 55 47 49 51 58 51 55 61 76 68
64 66 68 69 71 67 67 68 70 74 73 71 74 78 80 79 75 74 79 88 85 72 71 69 70 70 67 61 56 58 60 61 61 60 56 52 44 46 43 48 50 61 69 65
63 65 65 63 63 67 67 69 72 76 75 72 71 72 75 78 74 74 72 80 78 65 61 60 60 59 58 54 57 60 62 63 68 70 61 63 57 53 42 30 51 59 60 59
60 58 55 56 61 66 68 66 65 62 65 65 66 66 67 68 66 71 80 65 64 59 56 58 54 50 47 48 53 58 63 63 64 67 62 63 61 65 62 56 39 54 57 58
55 54 56 58 57 59 64 61 59 60 62 62 61 59 60 64 65 60 64 63 58 55 55 56 55 51 48 53 56 58 61 65 65 65 65 63 58 64 65 63 65 43 55 59
49 51 52 52 54 59 59 58 59 60 61 62 61 58 57 57 62 62 58 59 59 58 61 59 57 55 57 60 62 64 63 65 66 64 64 65 60 59 65 62 60 63 57 58
46 47 48 50 53 53 55 56 58 61 62 64 64 61 58 56 57 59 58 58 58 57 58 57 55 54 56 59 60 60 61 62 65 65 65 65 62 58 59 60 58 53 60 62
44 47 53 55 50 51 52 54 58 60 59 60 65 61 58 55 53 52 52 53 53 54 55 55 53 50 51 54 56 56 56 58 60 61 61 62 62 59 57 56 54 52 48 54
Wind_Direction_850mb
230 211 202 194 172 184 206 234 203 250 241 237 269 256 3 323 321 339 344 321 309 305 288 264 251 244 236 231 229 230 233 234 238 246 246 243 241 238 238 239 242 243 242 243
236 233 241 234 218 219 208 227 247 266 275 272 311 306 333 321 352 5 9 355 331 319 311 302 287 268 257 251 247 240 237 238 241 248 247 243 239 235 236 237 238 238 239 241
238 236 234 238 222 221 189 211 212 238 251 285 274 331 23 15 20 13 350 343 340 335 321 308 297 294 290 280 275 259 246 243 244 248 247 243 238 234 235 236 236 235 237 238
246 162 228 223 213 219 223 236 243 259 283 356 14 8 58 28 19 7 354 346 341 335 328 319 299 278 273 273 280 274 257 249 247 248 246 241 236 234 235 235 234 233 236 236
254 235 322 306 53 81 170 101 26 350 355 345 338 269 76 20 20 12 2 356 348 344 338 328 324 304 281 266 263 265 263 255 253 252 247 239 235 233 233 232 229 230 233 234
240 249 231 51 346 320 209 142 25 23 17 2 0 83 354 353 3 4 7 5 3 355 351 340 332 322 304 286 270 261 257 257 258 252 245 240 237 233 232 229 227 230 232 234
225 235 205 336 309 314 201 78 49 45 23 16 32 330 311 348 353 354 354 356 359 0 359 356 347 340 332 314 293 273 260 256 256 249 242 240 236 232 230 225 225 227 230 232
334 317 209 342 30 49 117 139 101 3 347 331 325 331 333 337 339 342 344 346 348 352 355 356 354 347 346 339 320 296 282 269 255 244 236 235 231 227 224 221 223 225 229 231
31 11 45 67 115 118 118 144 330 330 329 331 327 329 326 325 327 330 331 332 334 340 341 349 353 354 348 344 337 314 297 298 273 245 237 233 226 222 218 219 222 226 229 232
36 140 154 126 110 92 43 15 325 323 320 323 320 324 322 322 322 325 326 326 326 329 329 335 343 349 348 341 340 331 307 296 282 256 236 227 224 221 219 220 223 227 231 234
247 85 106 158 174 137 7 322 315 312 315 320 317 314 316 318 322 322 323 322 324 325 326 327 329 335 341 338 335 333 329 301 288 267 242 232 228 225 224 227 231 234 239 241
229 34 347 77 207 271 308 310 311 316 316 318 317 310 308 312 315 318 317 317 319 325 325 325 325 328 329 332 330 324 335 326 289 266 261 249 239 235 231 232 235 237 239 241
47 336 313 299 277 298 317 314 309 308 307 309 310 302 306 310 313 312 312 317 318 321 325 327 325 327 323 319 319 321 323 314 308 277 256 256 254 246 242 239 238 239 241 242
354 349 287 322 251 297 305 304 303 304 306 304 302 303 306 308 308 310 312 312 313 315 321 323 323 328 320 315 307 314 304 298 293 293 268 260 262 257 251 250 245 242 246 247
334 331 302 295 298 300 302 300 301 303 305 303 301 300 303 303 302 302 303 305 308 310 315 317 318 326 316 309 304 298 299 300 289 282 274 268 268 264 255 251 249 247 250 250
311 311 296 289 301 302 303 305 303 303 303 302 299 300 299 296 294 294 296 300 304 305 307 309 311 320 316 311 305 295 294 295 287 282 277 259 258 264 256 254 253 251 256 250
321 324 315 310 312 308 306 306 304 303 304 302 301 298 294 293 290 289 291 293 296 294 295 297 306 310 309 308 306 303 293 289 291 285 272 268 261 269 263 253 256 251 243 251
308 304 302 300 301 302 302 301 300 300 298 299 299 298 295 294 291 289 289 291 290 285 285 290 300 301 300 303 304 301 294 287 280 279 274 268 262 263 267 260 252 260 256 250
308 304 303 301 302 299 297 298 297 298 298 297 295 294 293 292 292 292 293 288 283 281 280 287 294 292 291 295 296 294 291 286 281 272 276 271 268 262 265 260 254 250 256 248
310 309 307 303 301 298 298 297 299 299 299 300 298 295 294 294 295 293 291 285 280 280 283 287 287 283 284 287 289 286 284 282 282 276 273 270 266 263 263 262 259 253 254 245
314 314 311 310 308 307 304 305 305 303 305 303 300 298 297 297 295 294 291 287 284 289 287 285 282 281 283 284 283 280 278 276 275 270 263 260 256 255 268 271 265 256 252 245
313 310 309 308 306 303 303 304 302 303 304 302 301 300 300 298 299 296 291 288 296 296 290 281 276 275 276 277 275 274 273 272 273 273 272 266 259 255 252 257 267 261 252 246
313 312 312 309 306 305 305 305 308 306 303 302 301 300 299 300 300 299 298 302 303 301 295 288 285 281 276 272 271 272 273 274 273 274 272 271 263 258 255 248 249 262 256 250
321 320 316 315 313 310 310 315 314 311 309 310 309 310 308 306 304 301 304 305 302 300 294 290 288 285 282 277 273 270 271 273 273 273 271 269 266 263 259 254 247 244 258 251
325 322 322 323 321 320 319 321 320 319 318 316 315 314 312 309 301 309 307 304 302 299 295 292 289 283 277 274 273 274 272 271 271 270 269 267 264 261 259 253 253 244 240 249
332 331 331 331 328 328 327 324 314 316 315 312 315 317 317 315 312 310 309 307 305 302 298 295 290 285 281 278 275 273 272 270 268 265 264 263 261 260 258 252 249 246 237 238
343 345 342 339 341 336 332 330 322 321 323 319 315 321 321 321 319 315 312 309 307 306 305 302 297 291 285 282 279 276 272 269 267 266 262 259 256 254 249 247 244 238 236 238